DECAYED

FENGYUN 1C DEB, 31355 (Decayed)

Orbit data source: Space-Track

FENGYUN 1C DEB, 31355 was space debris in SSO originally from a launch on Mon, 10 May 1999 UTC launched from the Taiyaun Space Center, China (TSC). Fengyun 1C debris stems from the Chinese weather satellite Fengyun-1C, which was intentionally destroyed by a Chinese anti-satellite missile in 2007. This event dramatically increased the amount of space debris, with thousands of trackable fragments posing hazards to satellites and human spaceflight. The Fengyun 1C debris cloud has become a focal point in discussions about space sustainability and the need for international regulations to prevent the creation of new debris.

Not visible in the next 10 days
Identifier
31355, 1999-025BRK
Orbit
Decayed
Country
Flag of CNCN / PRC
Related business
Manufacturer
Unknown
Mission
Decayed spacecraft
Bus & Motor
Unknown
Mass
Unknown
Launch date (UTC)
1999-05-10 (27 years ago)
Launch vehicle
Unknown
Launch site
Taiyaun Space Center, China (TSC)
Object type
Payload
Rocket body
Debris
Shape & HBR
Unknown shape, 0.1 m
Radar Cross Section
Medium (>0.1 m² and <1 m²)

Expand to show TLE details & history
Last TLE update: 11 months ago

TLE from 11 months ago
0 FENGYUN 1C DEB
1 31355U 99025BRK 25291.35489200  .03045395  88176-2  90893-2 0  9994
2 31355  98.8299  69.6559 0016170 324.4293  35.5898 15.94359330983680
Epoch: 2025-10-18T08:31Z
TLE epoch observation values (Epoch: 2025-10-18T08:31:02.668Z)
Latitude
-0.00009°
Longitude
-85.19231°
Altitude
284.48 km
Speed
7.742 km/s
True Right ascension
04h 38m 37s
True Declination
0° 00' 00"
Sunlit
Object was in full shadow at epoch
Visualization orbit readout
Latitude
Unknown
Longitude
Unknown
Altitude
Unknown
Speed
Unknown
Apparent Right ascension
Unknown
Apparent Declination
Unknown
Sunlit
N/A
Visualization observer readout
Local Sidereal Time
07:23:05
Azimuth
Unknown
Elevation
Unknown
Doppler factor
Unknown
Orbital elements
Apogee altitude
297.814 km
Perigee altitude
276.259 km
Semi-major axis
6,665.173 km
Eccentricity
0.00162
Inclination
98.8299°
RAAN
69.6559°
Arg. of periapsis
324.4293°
True anomaly
35.69781°
Mean anomaly
35.5898°
Eccentric anomaly
35.64379°
Mean motion
3.98865 °/min
Orbital period
90.26 mins
BSTAR
0.0090893
Loading maneuver chart data...
Computing Atmospheric mass density...

Documentation

Showing up to 5 results
|